W8NES Weather Reports


Display with metric or nautical units.
time (UTC)temp
F
wind
direction
speed
MPH
gust
MPH
rain 1hr
in
rain 24hr
in
rain mn
in
humidity
%
barometer
mb
20260508101559 36 0 0.0 0.0 0.00 0.00 0.00 89 1015.1
20260508100100 36 0 0.0 0.0 0.00 0.00 0.00 89 1015.0
20260508094619 36 0 0.0 0.0 0.00 0.00 0.00 89 1014.7
20260508093058 37 0 0.0 0.0 0.00 0.00 0.00 89 1014.7
20260508091556 37 0 0.0 0.0 0.00 0.00 0.00 88 1014.6
20260508084558 37 0 0.0 0.0 0.00 0.00 0.00 88 1014.5
20260508083109 37 0 0.0 0.0 0.00 0.00 0.00 88 1014.6
20260508081603 38 0 0.0 0.0 0.00 0.00 0.00 88 1014.6
20260508080056 38 0 0.0 2.0 0.00 0.00 0.00 87 1014.5
20260508074558 38 0 0.0 0.0 0.00 0.00 0.00 87 1014.6
20260508073055 38 0 0.0 0.0 0.00 0.00 0.00 87 1014.6
20260508071557 39 0 0.0 0.0 0.00 0.00 0.00 87 1014.5
20260508070057 39 0 0.0 0.0 0.00 0.00 0.00 87 1014.4
20260508064556 39 0 0.0 1.0 0.00 0.00 0.00 87 1014.4
20260508063055 40 0 0.0 0.0 0.00 0.00 0.00 86 1014.6
20260508061556 40 0 0.0 0.0 0.00 0.00 0.00 86 1014.7
20260508060055 40 0 0.0 0.0 0.00 0.00 0.00 86 1014.8
20260508054554 41 0 0.0 1.0 0.00 0.00 0.00 85 1014.6
20260508053057 41 0 0.0 0.0 0.00 0.00 0.00 85 1014.7
20260508051555 41 0 0.0 1.0 0.00 0.00 0.00 84 1014.7
20260508050057 42 0 0.0 1.0 0.00 0.00 0.00 84 1014.7
20260508044555 42 0 0.0 1.0 0.00 0.00 0.00 83 1014.9
20260508043107 43 0 0.0 2.0 0.00 0.00 0.00 82 1014.7
20260508041554 43 0 0.0 2.0 0.00 0.00 0.00 81 1014.7
20260508040057 43 0 0.0 1.0 0.00 0.00 0.00 80 1014.7
20260508034554 44 0 0.0 0.0 0.00 0.00 0.00 79 1014.7
20260508033057 44 0 0.0 0.0 0.00 0.00 0.00 78 1014.6
20260508031555 45 0 0.0 2.0 0.00 0.00 0.00 76 1014.5
20260508030054 46 244 0.0 2.0 0.00 0.00 0.00 74 1014.4
20260508024558 46 248 0.0 3.0 0.00 0.00 0.00 73 1014.1
20260508023058 47 246 1.0 2.0 0.00 0.00 0.00 69 1013.9
20260508021555 48 0 0.0 2.0 0.00 0.00 0.00 67 1013.8
20260508020058 49 254 0.0 1.0 0.00 0.00 0.00 64 1013.5
20260508014554 50 0 0.0 2.0 0.00 0.00 0.00 63 1013.4
20260508013057 51 0 0.0 0.0 0.00 0.00 0.00 53 1013.2
20260508011557 53 0 0.0 0.0 0.00 0.00 0.00 49 1012.9
20260508010059 54 0 0.0 2.0 0.00 0.00 0.00 48 1012.9
20260508004609 56 0 0.0 2.0 0.00 0.06 0.00 46 1012.8
20260508003057 57 0 0.0 4.0 0.00 0.06 0.00 44 1012.7
20260508001558 58 80 0.0 3.0 0.00 0.06 0.00 42 1012.7
20260508000057 59 0 0.0 4.0 0.00 0.06 0.00 42 1012.3
20260507234559 59 82 0.0 4.0 0.00 0.08 0.00 43 1012.0
20260507233056 60 149 1.0 8.0 0.00 0.08 0.00 39 1011.9
20260507231558 60 125 1.0 9.0 0.00 0.08 0.00 40 1011.8
20260507230106 62 75 1.0 9.0 0.00 0.08 0.00 40 1011.8
20260507224602 63 109 1.0 8.0 0.00 0.09 0.00 41 1011.9
20260507223101 60 190 1.0 8.0 0.00 0.09 0.00 45 1011.7
20260507221558 62 0 0.0 8.0 0.00 0.09 0.00 41 1011.6
20260507220058 64 86 1.0 6.0 0.00 0.09 0.00 44 1011.4
20260507214618 64 90 2.0 10.0 0.00 0.10 0.00 43 1011.3
20260507213108 64 0 1.0 6.0 0.00 0.10 0.00 41 1011.2
20260507211627 61 90 1.0 5.0 0.00 0.10 0.00 46 1011.1
20260507210100 63 0 1.0 6.0 0.00 0.10 0.00 41 1011.0
20260507204613 61 111 0.0 7.0 0.00 0.11 0.00 44 1011.0
20260507203111 63 67 3.0 8.0 0.00 0.11 0.00 41 1010.7
20260507201613 64 144 1.0 7.0 0.00 0.11 0.00 43 1011.0
20260507200109 62 132 1.0 7.0 0.00 0.11 0.00 44 1011.0
20260507194635 63 153 2.0 6.0 0.00 0.14 0.00 45 1011.2
20260507193101 61 286 3.0 7.0 0.00 0.14 0.00 46 1011.1
20260507191557 63 91 2.0 8.0 0.00 0.14 0.00 46 1011.5
20260507184606 62 105 0.0 7.0 0.00 0.15 0.00 55 1011.8
20260507183055 61 103 2.0 7.0 0.00 0.15 0.00 51 1011.7
20260507181558 61 242 1.0 7.0 0.00 0.15 0.00 51 1011.8
20260507180057 59 103 0.0 10.0 0.00 0.15 0.00 55 1011.8
20260507174558 62 0 3.0 10.0 0.00 0.17 0.00 51 1011.9
20260507173057 60 80 2.0 8.0 0.00 0.17 0.00 54 1012.0
20260507171556 61 0 3.0 8.0 0.00 0.17 0.00 57 1012.0
20260507170056 58 0 0.0 6.0 0.00 0.17 0.00 60 1012.2
20260507164606 59 95 1.0 7.0 0.00 0.19 0.00 62 1012.4
20260507163058 59 352 1.0 6.0 0.00 0.19 0.00 65 1012.5
20260507161558 58 0 0.0 4.0 0.00 0.19 0.00 67 1012.7
20260507160058 58 0 0.0 3.0 0.00 0.19 0.00 69 1012.9
20260507154559 56 38 1.0 7.0 0.00 0.20 0.00 65 1012.8
20260507153057 58 0 0.0 4.0 0.00 0.20 0.00 66 1012.8
20260507151558 57 258 0.0 4.0 0.00 0.20 0.00 70 1012.9
20260507150059 55 0 0.0 4.0 0.00 0.20 0.00 67 1013.0
20260507144603 55 0 0.0 2.0 0.00 0.20 0.00 70 1013.1
20260507143110 54 0 0.0 4.0 0.00 0.20 0.00 68 1013.0
20260507141557 54 0 0.0 2.0 0.00 0.20 0.00 78 1013.2
20260507140059 53 0 0.0 1.0 0.00 0.20 0.00 78 1013.4
20260507134600 52 0 0.0 3.0 0.00 0.20 0.00 83 1013.6
20260507133106 51 0 0.0 1.0 0.00 0.20 0.00 91 1013.7
20260507131612 51 0 0.0 2.0 0.00 0.20 0.00 92 1013.6
20260507130059 51 0 0.0 2.0 0.00 0.20 0.00 92 1013.7
20260507124600 51 0 0.0 2.0 0.00 0.20 0.00 92 1013.6
20260507123059 51 0 0.0 1.0 0.00 0.20 0.00 92 1013.5
20260507121555 50 0 0.0 1.0 0.00 0.20 0.00 92 1013.6
20260507120058 50 0 0.0 0.0 0.00 0.20 0.00 92 1013.7
20260507114557 50 0 0.0 0.0 0.00 0.23 0.00 92 1013.6
20260507113100 49 0 0.0 0.0 0.00 0.23 0.00 92 1013.6
20260507111559 49 0 0.0 0.0 0.00 0.23 0.00 92 1013.3
20260507110056 49 0 0.0 0.0 0.00 0.23 0.00 92 1013.2
20260507104558 49 0 0.0 0.0 0.00 0.29 0.00 92 1013.1
20260507103056 49 0 0.0 0.0 0.00 0.29 0.00 92 1013.0